,,Stat5,,Stat1,,Stat2,,Stat3,,Stat4,,Wind1,,Wind1
time,status,PA1M_AVG,status,PR1M_SUM,status,RH1M_AVG,status,SR1M_AVG,status,TA1M_AVG,status,W1dAve1m,status,W1sAve1m
2001-02-08, 00:00:00,VALID,916.289,VALID,0,VALID,99.6213,VALID,0,VALID,19.3272,VALID,86,VALID,0
2001-02-08, 00:01:00,VALID,916.298,VALID,0,VALID,99.6137,VALID,-0.0169808,VALID,19.3426,VALID,86,VALID,0
2001-02-08, 00:02:00,VALID,916.298,VALID,0,VALID,99.62,VALID,-0.0339617,VALID,19.3464,VALID,86,VALID,0
2001-02-08, 00:03:00,VALID,916.309,VALID,0,VALID,99.6124,VALID,-0.0169808,VALID,19.3367,VALID,86,VALID,0
2001-02-08, 00:04:00,VALID,916.299,VALID,0.2,VALID,99.6175,VALID,-0.0169808,VALID,19.3429,VALID,86,VALID,0
2001-02-08, 00:05:00,VALID,916.293,VALID,0,VALID,99.6162,VALID,-0.0169808,VALID,19.3498,VALID,86,VALID,0
2001-02-08, 00:06:00,VALID,916.29,VALID,0,VALID,99.6213,VALID,-0.0169808,VALID,19.3618,VALID,90,VALID,0
2001-02-08, 00:07:00,VALID,916.293,VALID,0,VALID,99.6239,VALID,0,VALID,19.3717,VALID,102,VALID,0.130208
2001-02-08, 00:08:00,VALID,916.29,VALID,0,VALID,99.6264,VALID,-0.0169808,VALID,19.3752,VALID,102,VALID,0.21855
2001-02-08, 00:09:00,VALID,916.267,VALID,0.2,VALID,99.6175,VALID,0.0169808,VALID,19.3426,VALID,107,VALID,0.363511
2001-02-08, 00:10:00,VALID,916.258,VALID,0,VALID,99.62,VALID,-0.0169808,VALID,19.32,VALID,121,VALID,0.448396
2001-02-08, 00:11:00,VALID,916.25,VALID,0,VALID,99.6239,VALID,-0.0169808,VALID,19.2977,VALID,126,VALID,0.521326
2001-02-08, 00:12:00,VALID,916.248,VALID,0.2,VALID,99.6239,VALID,0,VALID,19.2813,VALID,126,VALID,0.537977
2001-02-08, 00:13:00,VALID,916.231,VALID,0,VALID,99.6188,VALID,-0.0169808,VALID,19.2616,VALID,126,VALID,0.402778
2001-02-08, 00:14:00,VALID,916.233,VALID,0.2,VALID,99.6289,VALID,-0.0169808,VALID,19.2661,VALID,126,VALID,0.435033
2001-02-08, 00:15:00,VALID,916.208,VALID,0,VALID,99.6188,VALID,-0.0169808,VALID,19.2398,VALID,133,VALID,0.379523
2001-02-08, 00:16:00,VALID,916.205,VALID,0,VALID,99.6239,VALID,0,VALID,19.2268,VALID,146,VALID,0.4273
2001-02-08, 00:17:00,VALID,916.205,VALID,0.2,VALID,99.6277,VALID,0,VALID,19.2268,VALID,146,VALID,0.447545
2001-02-08, 00:18:00,VALID,916.211,VALID,0,VALID,99.6239,VALID,-0.0509425,VALID,19.2238,VALID,146,VALID,0.48602
2001-02-08, 00:19:00,VALID,916.202,VALID,0,VALID,99.6328,VALID,-0.0339617,VALID,19.2335,VALID,146,VALID,0.436699
2001-02-08, 00:20:00,VALID,916.211,VALID,0.2,VALID,99.6404,VALID,0,VALID,19.2365,VALID,146,VALID,0.367578
2001-02-08, 00:21:00,VALID,916.216,VALID,0,VALID,99.648,VALID,-0.0339617,VALID,19.2562,VALID,146,VALID,0.236842
2001-02-08, 00:22:00,VALID,916.209,VALID,0,VALID,99.6417,VALID,-0.0339617,VALID,19.2725,VALID,146,VALID,0.00472862
2001-02-08, 00:23:00,VALID,916.227,VALID,0.2,VALID,99.6366,VALID,-0.0339617,VALID,19.2783,VALID,146,VALID,0.0120192
2001-02-08, 00:24:00,VALID,916.225,VALID,0,VALID,99.6391,VALID,0,VALID,19.2912,VALID,146,VALID,0
2001-02-08, 00:25:00,VALID,916.219,VALID,0,VALID,99.6378,VALID,0,VALID,19.3046,VALID,146,VALID,0
2001-02-08, 00:26:00,VALID,916.222,VALID,0.2,VALID,99.6289,VALID,0,VALID,19.2914,VALID,146,VALID,0.113971
2001-02-08, 00:27:00,VALID,916.218,VALID,0,VALID,99.6353,VALID,0,VALID,19.2656,VALID,88,VALID,0.29043
2001-02-08, 00:28:00,VALID,916.224,VALID,0,VALID,99.6378,VALID,0,VALID,19.2591,VALID,82,VALID,0.00911458
2001-02-08, 00:29:00,VALID,916.212,VALID,0,VALID,99.634,VALID,0,VALID,19.2427,VALID,82,VALID,0
2001-02-08, 00:30:00,VALID,916.215,VALID,0.2,VALID,99.6404,VALID,0.0169808,VALID,19.2427,VALID,82,VALID,0
2001-02-08, 00:31:00,VALID,916.201,VALID,0,VALID,99.6366,VALID,0,VALID,19.2231,VALID,82,VALID,0
2001-02-08, 00:32:00,VALID,916.18,VALID,0,VALID,99.6404,VALID,-0.0169808,VALID,19.2293,VALID,82,VALID,0
2001-02-08, 00:33:00,VALID,916.195,VALID,0,VALID,99.6378,VALID,0,VALID,19.246,VALID,82,VALID,0
2001-02-08, 00:34:00,VALID,916.188,VALID,0,VALID,99.6378,VALID,0,VALID,19.2688,VALID,82,VALID,0
2001-02-08, 00:35:00,VALID,916.188,VALID,0.2,VALID,99.6442,VALID,0,VALID,19.2885,VALID,82,VALID,0
2001-02-08, 00:36:00,VALID,916.181,VALID,0,VALID,99.6442,VALID,-0.0169808,VALID,19.3019,VALID,82,VALID,0
2001-02-08, 00:37:00,VALID,916.158,VALID,0,VALID,99.6493,VALID,-0.0339617,VALID,19.3011,VALID,82,VALID,0
2001-02-08, 00:38:00,VALID,916.149,VALID,0,VALID,99.648,VALID,-0.101885,VALID,19.3272,VALID,82,VALID,0
2001-02-08, 00:39:00,VALID,916.149,VALID,0,VALID,99.6518,VALID,-0.0849042,VALID,19.3464,VALID,82,VALID,0
2001-02-08, 00:40:00,VALID,916.135,VALID,0,VALID,99.6518,VALID,-0.0339617,VALID,19.3528,VALID,82,VALID,0
2001-02-08, 00:41:00,VALID,916.124,VALID,0.2,VALID,99.6518,VALID,-0.0169808,VALID,19.3593,VALID,82,VALID,0
2001-02-08, 00:42:00,VALID,916.109,VALID,0,VALID,99.6595,VALID,0,VALID,19.3846,VALID,82,VALID,0
2001-02-08, 00:43:00,VALID,916.105,VALID,0,VALID,99.6531,VALID,-0.0339617,VALID,19.3951,VALID,82,VALID,0
2001-02-08, 00:44:00,VALID,916.092,VALID,0,VALID,99.6455,VALID,-0.0339617,VALID,19.3816,VALID,107,VALID,0
2001-02-08, 00:45:00,VALID,916.081,VALID,0,VALID,99.6455,VALID,-0.0169808,VALID,19.3784,VALID,107,VALID,0
2001-02-08, 00:46:00,VALID,916.079,VALID,0,VALID,99.6531,VALID,-0.0169808,VALID,19.3883,VALID,107,VALID,0
2001-02-08, 00:47:00,VALID,916.077,VALID,0,VALID,99.6531,VALID,-0.0509425,VALID,19.3948,VALID,107,VALID,0
2001-02-08, 00:48:00,VALID,916.083,VALID,0,VALID,99.6556,VALID,0,VALID,19.3916,VALID,107,VALID,0
2001-02-08, 00:49:00,VALID,916.076,VALID,0.2,VALID,99.6556,VALID,-0.0169808,VALID,19.3911,VALID,107,VALID,0
2001-02-08, 00:50:00,VALID,916.087,VALID,0,VALID,99.6493,VALID,-0.0339617,VALID,19.3814,VALID,107,VALID,0
2001-02-08, 00:51:00,VALID,916.094,VALID,0,VALID,99.6569,VALID,-0.0339617,VALID,19.3724,VALID,107,VALID,0
2001-02-08, 00:52:00,VALID,916.091,VALID,0,VALID,99.6544,VALID,-0.0509425,VALID,19.3593,VALID,107,VALID,0
2001-02-08, 00:53:00,VALID,916.081,VALID,0,VALID,99.6582,VALID,-0.0509425,VALID,19.3563,VALID,107,VALID,0
2001-02-08, 00:54:00,VALID,916.079,VALID,0.2,VALID,99.6607,VALID,0,VALID,19.3625,VALID,107,VALID,0
2001-02-08, 00:55:00,VALID,916.083,VALID,0,VALID,99.6582,VALID,-0.0509425,VALID,19.3593,VALID,107,VALID,0
2001-02-08, 00:56:00,VALID,916.07,VALID,0,VALID,99.6633,VALID,-0.0339617,VALID,19.3466,VALID,107,VALID,0
2001-02-08, 00:57:00,VALID,916.061,VALID,0.2,VALID,99.662,VALID,-0.0169808,VALID,19.3369,VALID,107,VALID,0
2001-02-08, 00:58:00,VALID,916.063,VALID,0,VALID,99.6773,VALID,-0.0169808,VALID,19.327,VALID,107,VALID,0
2001-02-08, 00:59:00,VALID,916.069,VALID,0,VALID,99.6646,VALID,-0.0169808,VALID,19.3267,VALID,107,VALID,0
2001-02-08, 01:00:00,VALID,916.069,VALID,0,VALID,99.6531,VALID,-0.0169808,VALID,19.3364,VALID,107,VALID,0
2001-02-08, 01:01:00,VALID,916.062,VALID,0.2,VALID,99.6722,VALID,0,VALID,19.33,VALID,107,VALID,0
2001-02-08, 01:02:00,VALID,916.06,VALID,0,VALID,99.6684,VALID,-0.0339617,VALID,19.327,VALID,107,VALID,0.318623
2001-02-08, 01:03:00,VALID,916.059,VALID,0,VALID,99.6633,VALID,-0.0169808,VALID,19.3039,VALID,107,VALID,0.478733
2001-02-08, 01:04:00,VALID,916.05,VALID,0,VALID,99.6607,VALID,-0.0509425,VALID,19.2817,VALID,107,VALID,0.473958
2001-02-08, 01:05:00,VALID,916.034,VALID,0.2,VALID,99.6684,VALID,-0.0339617,VALID,19.2755,VALID,106,VALID,0.431949
2001-02-08, 01:06:00,VALID,916.02,VALID,0,VALID,99.6696,VALID,-0.0169808,VALID,19.2527,VALID,105,VALID,0.437089
2001-02-08, 01:07:00,VALID,916.004,VALID,0,VALID,99.6582,VALID,-0.0339617,VALID,19.2562,VALID,102,VALID,0.405816
2001-02-08, 01:08:00,VALID,915.995,VALID,0,VALID,99.6671,VALID,-0.0679233,VALID,19.2402,VALID,98,VALID,0.527009
2001-02-08, 01:09:00,VALID,915.987,VALID,0,VALID,99.6595,VALID,-0.0509425,VALID,19.2042,VALID,94,VALID,0.42866
2001-02-08, 01:10:00,VALID,915.97,VALID,0.2,VALID,99.6684,VALID,-0.0169808,VALID,19.1881,VALID,94,VALID,0.198718
2001-02-08, 01:11:00,VALID,915.97,VALID,0,VALID,99.6709,VALID,-0.0169808,VALID,19.1883,VALID,94,VALID,0.175781
2001-02-08, 01:12:00,VALID,915.944,VALID,0,VALID,99.6773,VALID,-0.0339617,VALID,19.1819,VALID,94,VALID,0.175164
2001-02-08, 01:13:00,VALID,915.933,VALID,0,VALID,99.6836,VALID,-0.0679233,VALID,19.1784,VALID,94,VALID,0.294202
2001-02-08, 01:14:00,VALID,915.937,VALID,0,VALID,99.6709,VALID,-0.0169808,VALID,19.1752,VALID,94,VALID,0.23117
2001-02-08, 01:15:00,VALID,915.922,VALID,0.2,VALID,99.6862,VALID,-0.0849042,VALID,19.1659,VALID,94,VALID,0.0985577
2001-02-08, 01:16:00,VALID,915.911,VALID,0,VALID,99.6887,VALID,-0.0849042,VALID,19.1655,VALID,94,VALID,0.00480769
2001-02-08, 01:17:00,VALID,915.898,VALID,0,VALID,99.6824,VALID,-0.0679233,VALID,19.1848,VALID,94,VALID,0
2001-02-08, 01:18:00,VALID,915.887,VALID,0,VALID,99.6887,VALID,-0.0509425,VALID,19.1853,VALID,94,VALID,0
2001-02-08, 01:19:00,VALID,915.867,VALID,0,VALID,99.6963,VALID,-0.0679233,VALID,19.2077,VALID,94,VALID,0
2001-02-08, 01:20:00,VALID,915.865,VALID,0,VALID,99.6938,VALID,-0.0169808,VALID,19.2266,VALID,94,VALID,0
2001-02-08, 01:21:00,VALID,915.846,VALID,0,VALID,99.69,VALID,-0.0169808,VALID,19.246,VALID,94,VALID,0
2001-02-08, 01:22:00,VALID,915.838,VALID,0,VALID,99.6836,VALID,-0.0339617,VALID,19.2688,VALID,94,VALID,0
2001-02-08, 01:23:00,VALID,915.844,VALID,0.2,VALID,99.6824,VALID,-0.0339617,VALID,19.2494,VALID,94,VALID,0
2001-02-08, 01:24:00,VALID,915.846,VALID,0,VALID,99.69,VALID,0,VALID,19.2529,VALID,94,VALID,0
2001-02-08, 01:25:00,VALID,915.841,VALID,0,VALID,99.6836,VALID,-0.0679233,VALID,19.2363,VALID,94,VALID,0
2001-02-08, 01:26:00,VALID,915.827,VALID,0,VALID,99.7002,VALID,-0.0849042,VALID,19.2661,VALID,94,VALID,0
2001-02-08, 01:27:00,VALID,915.817,VALID,0,VALID,99.6963,VALID,-0.0679233,VALID,19.2852,VALID,94,VALID,0
2001-02-08, 01:28:00,VALID,915.813,VALID,0,VALID,99.6862,VALID,-0.0509425,VALID,19.2885,VALID,94,VALID,0
2001-02-08, 01:29:00,VALID,915.796,VALID,0.2,VALID,99.6976,VALID,-0.0509425,VALID,19.2979,VALID,94,VALID,0
2001-02-08, 01:30:00,VALID,915.799,VALID,0,VALID,99.6951,VALID,-0.0339617,VALID,19.3019,VALID,94,VALID,0
2001-02-08, 01:31:00,VALID,915.766,VALID,0,VALID,99.6925,VALID,-0.0509425,VALID,19.3051,VALID,94,VALID,0
2001-02-08, 01:32:00,VALID,915.767,VALID,0,VALID,99.7052,VALID,-0.0679233,VALID,19.286,VALID,94,VALID,0
2001-02-08, 01:33:00,VALID,915.75,VALID,0,VALID,99.7002,VALID,-0.0679233,VALID,19.2792,VALID,94,VALID,0
2001-02-08, 01:34:00,VALID,915.744,VALID,0.2,VALID,99.704,VALID,-0.0679233,VALID,19.2661,VALID,94,VALID,0
2001-02-08, 01:35:00,VALID,915.719,VALID,0,VALID,99.7027,VALID,-0.0849042,VALID,19.2624,VALID,94,VALID,0
2001-02-08, 01:36:00,VALID,915.702,VALID,0,VALID,99.7103,VALID,-0.0509425,VALID,19.2497,VALID,94,VALID,0
2001-02-08, 01:37:00,VALID,915.68,VALID,0,VALID,99.7014,VALID,0,VALID,19.246,VALID,94,VALID,0
2001-02-08, 01:38:00,VALID,915.675,VALID,0,VALID,99.6963,VALID,-0.0169808,VALID,19.2425,VALID,94,VALID,0
2001-02-08, 01:39:00,VALID,915.67,VALID,0,VALID,99.7014,VALID,0,VALID,19.2557,VALID,94,VALID,0
2001-02-08, 01:40:00,VALID,915.666,VALID,0,VALID,99.6989,VALID,-0.0339617,VALID,19.2524,VALID,94,VALID,0
2001-02-08, 01:41:00,VALID,915.668,VALID,0,VALID,99.6963,VALID,-0.0509425,VALID,19.2398,VALID,94,VALID,0.00443412
2001-02-08, 01:42:00,VALID,915.666,VALID,0,VALID,99.6989,VALID,-0.0509425,VALID,19.1978,VALID,94,VALID,0.0171441
2001-02-08, 01:43:00,VALID,915.663,VALID,0,VALID,99.7014,VALID,0,VALID,19.2045,VALID,94,VALID,0
2001-02-08, 01:44:00,VALID,915.661,VALID,0,VALID,99.7065,VALID,-0.0339617,VALID,19.1883,VALID,94,VALID,0
2001-02-08, 01:45:00,VALID,915.647,VALID,0.2,VALID,99.7065,VALID,0,VALID,19.1717,VALID,94,VALID,0.00120192
2001-02-08, 01:46:00,VALID,915.639,VALID,0,VALID,99.7116,VALID,-0.0169808,VALID,19.1883,VALID,94,VALID,0
2001-02-08, 01:47:00,VALID,915.627,VALID,0,VALID,99.7103,VALID,-0.0339617,VALID,19.1848,VALID,94,VALID,0
2001-02-08, 01:48:00,VALID,915.615,VALID,0,VALID,99.7014,VALID,-0.0169808,VALID,19.2047,VALID,94,VALID,0
2001-02-08, 01:49:00,VALID,915.602,VALID,0,VALID,99.7002,VALID,-0.0169808,VALID,19.2107,VALID,94,VALID,0
2001-02-08, 01:50:00,VALID,915.592,VALID,0,VALID,99.7129,VALID,0,VALID,19.2137,VALID,94,VALID,0
2001-02-08, 01:51:00,VALID,915.588,VALID,0,VALID,99.7154,VALID,0,VALID,19.2266,VALID,94,VALID,0.0413603
2001-02-08, 01:52:00,VALID,915.584,VALID,0,VALID,99.7167,VALID,-0.0679233,VALID,19.2562,VALID,94,VALID,0
2001-02-08, 01:53:00,VALID,915.573,VALID,0,VALID,99.7078,VALID,-0.0339617,VALID,19.2266,VALID,94,VALID,0
2001-02-08, 01:54:00,VALID,915.566,VALID,0.2,VALID,99.7078,VALID,0,VALID,19.2139,VALID,94,VALID,0
2001-02-08, 01:55:00,VALID,915.551,VALID,0,VALID,99.7129,VALID,-0.0169808,VALID,19.2333,VALID,94,VALID,0
2001-02-08, 01:56:00,VALID,915.542,VALID,0,VALID,99.7218,VALID,-0.0339617,VALID,19.2432,VALID,95,VALID,0
2001-02-08, 01:57:00,VALID,915.523,VALID,0,VALID,99.7141,VALID,-0.0169808,VALID,19.2365,VALID,95,VALID,0
2001-02-08, 01:58:00,VALID,915.505,VALID,0,VALID,99.7002,VALID,-0.0339617,VALID,19.2201,VALID,95,VALID,0
2001-02-08, 01:59:00,VALID,915.494,VALID,0,VALID,99.7141,VALID,-0.0339617,VALID,19.2303,VALID,95,VALID,0
2001-02-08, 02:00:00,VALID,915.48,VALID,0,VALID,99.7154,VALID,-0.0169808,VALID,19.2204,VALID,95,VALID,0
2001-02-08, 02:01:00,VALID,915.467,VALID,0,VALID,99.7141,VALID,-0.0169808,VALID,19.2201,VALID,95,VALID,0
2001-02-08, 02:02:00,VALID,915.441,VALID,0,VALID,99.7218,VALID,0,VALID,19.2201,VALID,95,VALID,0
2001-02-08, 02:03:00,VALID,915.423,VALID,0,VALID,99.718,VALID,-0.0169808,VALID,19.2271,VALID,95,VALID,0
2001-02-08, 02:04:00,VALID,915.417,VALID,0.2,VALID,99.7154,VALID,-0.0339617,VALID,19.2206,VALID,95,VALID,0
2001-02-08, 02:05:00,VALID,915.408,VALID,0,VALID,99.7218,VALID,0,VALID,19.2104,VALID,95,VALID,0
2001-02-08, 02:06:00,VALID,915.394,VALID,0,VALID,99.7192,VALID,0,VALID,19.207,VALID,95,VALID,0
2001-02-08, 02:07:00,VALID,915.392,VALID,0,VALID,99.7154,VALID,-0.0169808,VALID,19.2047,VALID,95,VALID,0
2001-02-08, 02:08:00,VALID,915.372,VALID,0,VALID,99.7154,VALID,0,VALID,19.1752,VALID,100,VALID,0
2001-02-08, 02:09:00,VALID,915.361,VALID,0,VALID,99.7345,VALID,-0.0169808,VALID,19.1622,VALID,112,VALID,0.237109
2001-02-08, 02:10:00,VALID,915.347,VALID,0,VALID,99.7294,VALID,0,VALID,19.1781,VALID,96,VALID,0.484809
2001-02-08, 02:11:00,VALID,915.319,VALID,0,VALID,99.7256,VALID,-0.0169808,VALID,19.1881,VALID,91,VALID,0
2001-02-08, 02:12:00,VALID,915.322,VALID,0,VALID,99.7421,VALID,-0.0169808,VALID,19.2012,VALID,97,VALID,0
2001-02-08, 02:13:00,VALID,915.306,VALID,0,VALID,99.7218,VALID,-0.0679233,VALID,19.2047,VALID,97,VALID,0
2001-02-08, 02:14:00,VALID,915.295,VALID,0,VALID,99.7256,VALID,0,VALID,19.1945,VALID,97,VALID,0
2001-02-08, 02:15:00,VALID,915.293,VALID,0,VALID,99.7281,VALID,-0.0169808,VALID,19.198,VALID,97,VALID,0
2001-02-08, 02:16:00,VALID,915.28,VALID,0,VALID,99.737,VALID,-0.0849042,VALID,19.1982,VALID,97,VALID,0
2001-02-08, 02:17:00,VALID,915.254,VALID,0,VALID,99.7332,VALID,-0.0509425,VALID,19.1978,VALID,97,VALID,0
2001-02-08, 02:18:00,VALID,915.237,VALID,0,VALID,99.7281,VALID,-0.0679233,VALID,19.1883,VALID,95,VALID,0
2001-02-08, 02:19:00,VALID,915.209,VALID,0,VALID,99.7294,VALID,-0.0679233,VALID,19.1851,VALID,82,VALID,0
2001-02-08, 02:20:00,VALID,915.196,VALID,0,VALID,99.7421,VALID,-0.0679233,VALID,19.192,VALID,87,VALID,0
2001-02-08, 02:21:00,VALID,915.18,VALID,0,VALID,99.7383,VALID,-0.0509425,VALID,19.1848,VALID,92,VALID,0.387747
2001-02-08, 02:22:00,VALID,915.183,VALID,0.2,VALID,99.737,VALID,-0.0169808,VALID,19.1876,VALID,112,VALID,0.289485
2001-02-08, 02:23:00,VALID,915.178,VALID,0,VALID,99.737,VALID,0.0169808,VALID,19.2003,VALID,111,VALID,0.595703
2001-02-08, 02:24:00,VALID,915.159,VALID,0,VALID,99.7434,VALID,0,VALID,19.1806,VALID,91,VALID,0.688117
2001-02-08, 02:25:00,VALID,915.146,VALID,0,VALID,99.7447,VALID,0.0339617,VALID,19.1744,VALID,100,VALID,0.884821
2001-02-08, 02:26:00,VALID,915.148,VALID,0,VALID,99.7434,VALID,0,VALID,19.1677,VALID,95,VALID,0.704728
2001-02-08, 02:27:00,VALID,915.133,VALID,0,VALID,99.7408,VALID,0.0849042,VALID,19.164,VALID,89,VALID,0.176215
2001-02-08, 02:28:00,VALID,915.135,VALID,0,VALID,99.7396,VALID,0.101885,VALID,19.1573,VALID,23,VALID,0.24261
2001-02-08, 02:29:00,VALID,915.127,VALID,0,VALID,99.737,VALID,0.0509425,VALID,19.1352,VALID,301,VALID,0.230769
2001-02-08, 02:30:00,VALID,915.119,VALID,0,VALID,99.7421,VALID,0.0679233,VALID,19.1188,VALID,280,VALID,0.183799
2001-02-08, 02:31:00,VALID,915.105,VALID,0,VALID,99.7383,VALID,0.0849042,VALID,19.1029,VALID,156,VALID,0.335115
2001-02-08, 02:32:00,VALID,915.091,VALID,0,VALID,99.7459,VALID,0.0679233,VALID,19.083,VALID,110,VALID,0.0743243
2001-02-08, 02:33:00,VALID,915.091,VALID,0,VALID,99.7688,VALID,0.0509425,VALID,19.0863,VALID,99,VALID,0.687717
2001-02-08, 02:34:00,VALID,915.07,VALID,0,VALID,99.7536,VALID,0.0679233,VALID,19.1126,VALID,105,VALID,0.626056
2001-02-08, 02:35:00,VALID,915.061,VALID,0,VALID,99.7587,VALID,0.0339617,VALID,19.1419,VALID,106,VALID,0.240748
2001-02-08, 02:36:00,VALID,915.055,VALID,0,VALID,99.7688,VALID,0.0509425,VALID,19.1412,VALID,98,VALID,0.10016
2001-02-08, 02:37:00,VALID,915.044,VALID,0,VALID,99.7587,VALID,0.0169808,VALID,19.1645,VALID,108,VALID,0.697716
2001-02-08, 02:38:00,VALID,915.026,VALID,0,VALID,99.7587,VALID,0.0339617,VALID,19.1513,VALID,105,VALID,0.48712
2001-02-08, 02:39:00,VALID,915.015,VALID,0.2,VALID,99.7625,VALID,0,VALID,19.1518,VALID,108,VALID,0.13384
2001-02-08, 02:40:00,VALID,914.994,VALID,0,VALID,99.7523,VALID,0.0169808,VALID,19.1615,VALID,100,VALID,0.730569
2001-02-08, 02:41:00,VALID,914.982,VALID,0,VALID,99.7612,VALID,0.0169808,VALID,19.1675,VALID,92,VALID,0.507212
2001-02-08, 02:42:00,VALID,914.966,VALID,0,VALID,99.765,VALID,0.0169808,VALID,19.1712,VALID,93,VALID,0.259881
2001-02-08, 02:43:00,VALID,914.965,VALID,0,VALID,99.7637,VALID,0,VALID,19.1553,VALID,94,VALID,0.603618
2001-02-08, 02:44:00,VALID,914.952,VALID,0,VALID,99.7637,VALID,0.0169808,VALID,19.1384,VALID,97,VALID,0.575169
2001-02-08, 02:45:00,VALID,914.936,VALID,0,VALID,99.7587,VALID,0.0169808,VALID,19.1486,VALID,105,VALID,0.769314
2001-02-08, 02:46:00,VALID,914.923,VALID,0,VALID,99.7536,VALID,0.0169808,VALID,19.1322,VALID,97,VALID,0.639106
2001-02-08, 02:47:00,VALID,914.923,VALID,0,VALID,99.7587,VALID,0.0339617,VALID,19.1193,VALID,96,VALID,0.575658
2001-02-08, 02:48:00,VALID,914.927,VALID,0,VALID,99.7675,VALID,0,VALID,19.1359,VALID,97,VALID,0.589638
2001-02-08, 02:49:00,VALID,914.917,VALID,0,VALID,99.7675,VALID,0.0169808,VALID,19.1521,VALID,86,VALID,0.455946
2001-02-08, 02:50:00,VALID,914.913,VALID,0,VALID,99.7612,VALID,0.0339617,VALID,19.1451,VALID,92,VALID,0.722768
2001-02-08, 02:51:00,VALID,914.91,VALID,0,VALID,99.7599,VALID,0.0339617,VALID,19.1064,VALID,107,VALID,0.682566
2001-02-08, 02:52:00,VALID,914.903,VALID,0,VALID,99.7714,VALID,0.0679233,VALID,19.1056,VALID,101,VALID,0.565104
2001-02-08, 02:53:00,VALID,914.901,VALID,0,VALID,99.7637,VALID,0.0679233,VALID,19.1257,VALID,106,VALID,0.279687
2001-02-08, 02:54:00,VALID,914.89,VALID,0,VALID,99.7663,VALID,0.0509425,VALID,19.1061,VALID,107,VALID,0.15625
2001-02-08, 02:55:00,VALID,914.875,VALID,0,VALID,99.7714,VALID,0.0509425,VALID,19.1066,VALID,107,VALID,0.111842
2001-02-08, 02:56:00,VALID,914.874,VALID,0,VALID,99.765,VALID,0.0339617,VALID,19.1262,VALID,107,VALID,0
2001-02-08, 02:57:00,VALID,914.853,VALID,0,VALID,99.7625,VALID,0.0509425,VALID,19.129,VALID,103,VALID,0.235176
2001-02-08, 02:58:00,VALID,914.84,VALID,0,VALID,99.7523,VALID,0.0169808,VALID,19.1163,VALID,102,VALID,0.0510817
2001-02-08, 02:59:00,VALID,914.822,VALID,0,VALID,99.7637,VALID,0.0509425,VALID,19.0736,VALID,102,VALID,0.000459559
2001-02-08, 03:00:00,VALID,914.803,VALID,0,VALID,99.7663,VALID,0.0169808,VALID,19.0738,VALID,102,VALID,0.0109375
2001-02-08, 03:01:00,VALID,914.792,VALID,0,VALID,99.7663,VALID,0.0169808,VALID,19.0708,VALID,102,VALID,0
2001-02-08, 03:02:00,VALID,914.782,VALID,0,VALID,99.7663,VALID,0.0339617,VALID,19.0579,VALID,102,VALID,0.000651042
2001-02-08, 03:03:00,VALID,914.765,VALID,0,VALID,99.7688,VALID,0.0339617,VALID,19.0544,VALID,102,VALID,0.0720017
2001-02-08, 03:04:00,VALID,914.753,VALID,0,VALID,99.7739,VALID,0.0169808,VALID,19.0418,VALID,102,VALID,0.202714
2001-02-08, 03:05:00,VALID,914.741,VALID,0,VALID,99.779,VALID,0.0679233,VALID,19.0517,VALID,102,VALID,0.337023
2001-02-08, 03:06:00,VALID,914.737,VALID,0,VALID,99.7688,VALID,0.0169808,VALID,19.0544,VALID,102,VALID,0.280194
2001-02-08, 03:07:00,VALID,914.74,VALID,0,VALID,99.7726,VALID,0.0339617,VALID,19.0448,VALID,98,VALID,0.329427
2001-02-08, 03:08:00,VALID,914.737,VALID,0,VALID,99.7866,VALID,0.0679233,VALID,19.0572,VALID,99,VALID,0.325658
2001-02-08, 03:09:00,VALID,914.743,VALID,0,VALID,99.7815,VALID,0.0509425,VALID,19.0837,VALID,99,VALID,0.464527
2001-02-08, 03:10:00,VALID,914.748,VALID,0,VALID,99.7879,VALID,0.0509425,VALID,19.0962,VALID,94,VALID,0.455983
2001-02-08, 03:11:00,VALID,914.753,VALID,0,VALID,99.7815,VALID,0.0339617,VALID,19.1131,VALID,95,VALID,0.433789
2001-02-08, 03:12:00,VALID,914.754,VALID,0,VALID,99.7841,VALID,0.0509425,VALID,19.1059,VALID,95,VALID,0.382401
2001-02-08, 03:13:00,VALID,914.753,VALID,0,VALID,99.7841,VALID,0.0169808,VALID,19.116,VALID,100,VALID,0.470017
2001-02-08, 03:14:00,VALID,914.751,VALID,0,VALID,99.7765,VALID,0.0679233,VALID,19.1029,VALID,103,VALID,0.596484
2001-02-08, 03:15:00,VALID,914.739,VALID,0,VALID,99.7752,VALID,0.0679233,VALID,19.0771,VALID,91,VALID,0.757813
2001-02-08, 03:16:00,VALID,914.735,VALID,0.2,VALID,99.779,VALID,0,VALID,19.0517,VALID,83,VALID,0.710491
2001-02-08, 03:17:00,VALID,914.727,VALID,0,VALID,99.7892,VALID,0,VALID,19.045,VALID,90,VALID,0.780048
2001-02-08, 03:18:00,VALID,914.71,VALID,0,VALID,99.7904,VALID,0.0169808,VALID,19.0445,VALID,107,VALID,0.80816
2001-02-08, 03:19:00,VALID,914.696,VALID,0,VALID,99.8019,VALID,0.0509425,VALID,19.0515,VALID,99,VALID,0.95228
2001-02-08, 03:20:00,VALID,914.692,VALID,0,VALID,99.7854,VALID,0.0169808,VALID,19.0288,VALID,103,VALID,0.983373
2001-02-08, 03:21:00,VALID,914.672,VALID,0,VALID,99.7943,VALID,0,VALID,19.0194,VALID,96,VALID,0.892475
2001-02-08, 03:22:00,VALID,914.662,VALID,0,VALID,99.7879,VALID,0.0169808,VALID,19.0452,VALID,89,VALID,0.536801
2001-02-08, 03:23:00,VALID,914.653,VALID,0,VALID,99.7866,VALID,0,VALID,19.0323,VALID,107,VALID,0.586993
2001-02-08, 03:24:00,VALID,914.642,VALID,0,VALID,99.793,VALID,0.0339617,VALID,19.0385,VALID,103,VALID,0.715061
2001-02-08, 03:25:00,VALID,914.63,VALID,0,VALID,99.7904,VALID,0.0339617,VALID,19.0164,VALID,113,VALID,1.00992
2001-02-08, 03:26:00,VALID,914.62,VALID,0,VALID,99.793,VALID,0.0339617,VALID,18.9834,VALID,109,VALID,0.836965
2001-02-08, 03:27:00,VALID,914.609,VALID,0,VALID,99.7879,VALID,0.0169808,VALID,18.9677,VALID,108,VALID,0.669671
2001-02-08, 03:28:00,VALID,914.606,VALID,0,VALID,99.7892,VALID,0,VALID,18.9508,VALID,83,VALID,0.584936
2001-02-08, 03:29:00,VALID,914.604,VALID,0,VALID,99.807,VALID,0,VALID,18.955,VALID,92,VALID,0.713471
2001-02-08, 03:30:00,VALID,914.605,VALID,0,VALID,99.8032,VALID,0.0339617,VALID,18.9446,VALID,103,VALID,0.699836
2001-02-08, 03:31:00,VALID,914.596,VALID,0,VALID,99.8032,VALID,0.0169808,VALID,18.9354,VALID,106,VALID,0.609375
2001-02-08, 03:32:00,VALID,914.597,VALID,0,VALID,99.8019,VALID,0.0339617,VALID,18.925,VALID,106,VALID,0.427484
2001-02-08, 03:33:00,VALID,914.613,VALID,0,VALID,99.8019,VALID,0.0169808,VALID,18.9227,VALID,106,VALID,0.380515
2001-02-08, 03:34:00,VALID,914.606,VALID,0,VALID,99.8019,VALID,0.0169808,VALID,18.919,VALID,105,VALID,0.429071
2001-02-08, 03:35:00,VALID,914.6,VALID,0,VALID,99.8032,VALID,0.0339617,VALID,18.9357,VALID,91,VALID,0.203336
2001-02-08, 03:36:00,VALID,914.605,VALID,0,VALID,99.8044,VALID,0,VALID,18.9357,VALID,83,VALID,0.282118
2001-02-08, 03:37:00,VALID,914.607,VALID,0,VALID,99.8057,VALID,-0.0339617,VALID,18.9197,VALID,96,VALID,0
2001-02-08, 03:38:00,VALID,914.604,VALID,0,VALID,99.8146,VALID,-0.0679233,VALID,18.9272,VALID,97,VALID,0
2001-02-08, 03:39:00,VALID,914.597,VALID,0,VALID,99.807,VALID,-0.0339617,VALID,18.92,VALID,97,VALID,0.186472